DW4226 Weather Reports


Display with metric or nautical units.
time (UTC)temp
F
wind
direction
speed
MPH
gust
MPH
rain 1hr
in
rain 24hr
in
rain mn
in
humidity
%
barometer
mb
20190425201517 80 150 1.0 0.0 0.00 0.00 0.00 70 1014.0
20190425200025 81 190 1.0 0.0 0.00 0.00 0.00 67 1014.0
20190425194516 81 208 1.0 0.0 0.00 0.00 0.00 66 1014.1
20190425193022 81 272 1.0 0.0 0.00 0.00 0.00 66 1014.4
20190425191520 82 259 2.0 0.0 0.00 0.00 0.00 68 1014.4
20190425190010 82 262 2.0 0.0 0.00 0.00 0.00 67 1014.1
20190425184649 81 132 1.0 0.0 0.00 0.00 0.00 69 1014.5
20190425183304 80 257 1.0 0.0 0.00 0.00 0.00 69 1014.6
20190425181737 80 207 1.0 0.0 0.00 0.00 0.00 70 1014.9
20190425180138 80 273 2.0 0.0 0.00 0.00 0.00 69 1014.9
20190425174617 80 165 1.0 0.0 0.00 0.00 0.00 68 1014.9
20190425173139 81 260 1.0 0.0 0.00 0.00 0.00 67 1015.1
20190425171642 80 126 1.0 0.0 0.00 0.00 0.00 69 1015.1
20190425170211 80 215 1.0 0.0 0.00 0.00 0.00 67 1015.1
20190425164642 80 244 1.0 0.0 0.00 0.00 0.00 69 1015.2
20190425163219 80 161 2.0 0.0 0.00 0.00 0.00 68 1015.5
20190425161632 80 242 1.0 0.0 0.00 0.00 0.00 66 1015.8
20190425160148 80 188 0.0 0.0 0.00 0.00 0.00 68 1015.9
20190425154608 78 230 1.0 0.0 0.00 0.00 0.00 68 1015.8
20190425153202 78 106 1.0 0.0 0.00 0.00 0.00 70 1015.7
20190425151807 78 153 2.0 0.0 0.00 0.00 0.00 71 1015.7
20190425150145 78 159 2.0 0.0 0.00 0.00 0.00 70 1015.6
20190425144626 78 134 0.0 0.0 0.00 0.00 0.00 69 1015.5
20190425143119 76 134 1.0 0.0 0.00 0.00 0.00 75 1015.5
20190425141602 75 165 1.0 0.0 0.00 0.00 0.00 76 1015.3
20190425140142 74 67 1.0 0.0 0.00 0.00 0.00 77 1015.4
20190425134603 73 56 2.0 0.0 0.00 0.00 0.00 81 1015.2
20190425133042 72 149 1.0 0.0 0.00 0.00 0.00 82 1015.2
20190425131611 71 116 2.0 0.0 0.00 0.00 0.00 83 1015.2
20190425130030 71 140 1.0 0.0 0.00 0.00 0.00 84 1015.1
20190425124621 70 97 1.0 0.0 0.00 0.00 0.00 84 1015.0
20190425123033 69 101 1.0 0.0 0.00 0.00 0.00 86 1014.9
20190425121558 69 131 1.0 0.0 0.00 0.00 0.00 86 1014.9
20190425120057 68 197 0.0 0.0 0.00 0.00 0.00 87 1014.8
20190425114534 68 97 1.0 0.0 0.00 0.00 0.00 88 1014.6
20190425113029 68 116 0.0 0.0 0.00 0.00 0.00 87 1014.5
20190425111515 68 116 1.0 0.0 0.00 0.00 0.00 87 1014.5
20190425110008 68 92 1.0 0.0 0.00 0.00 0.00 86 1014.3
20190425104510 68 122 0.0 0.0 0.00 0.00 0.00 86 1014.4
20190425103018 68 122 0.0 0.0 0.00 0.00 0.00 85 1014.2
20190425101506 68 103 0.0 0.0 0.00 0.00 0.00 85 1013.9
20190425100031 68 94 0.0 0.0 0.00 0.00 0.00 84 1013.6
20190425094508 68 81 1.0 0.0 0.00 0.00 0.00 84 1013.3
20190425093003 68 57 1.0 0.0 0.00 0.00 0.00 84 1013.1
20190425090000 68 92 0.0 0.0 0.00 0.00 0.00 84 1013.4
20190425084619 68 92 0.0 0.0 0.00 0.00 0.00 84 1013.5
20190425083200 68 92 0.0 0.0 0.00 0.00 0.00 83 1013.3
20190425081710 68 49 0.0 0.0 0.00 0.00 0.00 83 1013.4
20190425080247 69 152 0.0 0.0 0.00 0.00 0.00 81 1013.3
20190425074723 69 151 0.0 0.0 0.00 0.00 0.00 82 1013.5
20190425073222 69 180 1.0 0.0 0.00 0.00 0.00 84 1013.7
20190425071622 68 182 0.0 0.0 0.00 0.00 0.00 89 1013.7
20190425070126 68 225 0.0 0.0 0.00 0.00 0.00 91 1013.7
20190425064723 68 225 0.0 0.0 0.00 0.00 0.00 91 1013.9
20190425063132 68 319 0.0 0.0 0.00 0.00 0.00 91 1014.3
20190425061621 69 319 0.0 0.0 0.00 0.00 0.00 91 1014.5
20190425060125 69 319 0.0 0.0 0.00 0.00 0.00 90 1014.5
20190425054653 69 319 0.0 0.0 0.00 0.00 0.00 90 1014.5
20190425053113 69 319 0.0 0.0 0.00 0.00 0.00 89 1014.6
20190425051551 70 319 0.0 0.0 0.00 0.00 0.00 88 1014.8
20190425050147 70 319 0.0 0.0 0.00 0.00 0.00 88 1014.9
20190425044613 70 319 0.0 0.0 0.00 0.00 0.00 88 1015.1
20190425043044 70 319 0.0 0.0 0.00 0.00 0.00 88 1015.1
20190425041557 70 319 0.0 0.0 0.00 0.00 0.00 87 1015.2
20190425040140 70 319 0.0 0.0 0.00 0.00 0.00 87 1015.2
20190425034544 70 319 0.0 0.0 0.00 0.00 0.00 86 1015.4
20190425033052 70 319 0.0 0.0 0.00 0.00 0.00 86 1015.3
20190425031608 71 319 0.0 0.0 0.00 0.00 0.00 85 1014.8
20190425030057 71 319 0.0 0.0 0.00 0.00 0.00 84 1014.7
20190425024545 71 319 0.0 0.0 0.00 0.00 0.00 83 1014.8
20190425023053 72 319 0.0 0.0 0.00 0.00 0.00 82 1014.9
20190425021535 72 319 0.0 0.0 0.00 0.00 0.00 81 1014.8
20190425020050 73 319 0.0 0.0 0.00 0.00 0.00 80 1014.8
20190425014618 73 319 0.0 0.0 0.00 0.00 0.00 79 1015.0
20190425013041 73 319 0.0 0.0 0.00 0.00 0.00 78 1014.8
20190425011547 73 319 0.0 0.0 0.00 0.00 0.00 77 1014.8
20190425010041 74 319 0.0 0.0 0.00 0.00 0.00 76 1014.9
20190425004605 74 319 0.0 0.0 0.00 0.00 0.00 75 1014.8
20190425003051 74 319 0.0 0.0 0.00 0.00 0.00 74 1014.9
20190425001604 75 317 0.0 0.0 0.00 0.00 0.00 73 1014.8
20190425000055 75 317 0.0 0.0 0.00 0.00 0.00 72 1014.7
20190424234536 76 315 0.0 0.0 0.00 0.00 0.00 71 1014.8
20190424233040 76 317 0.0 0.0 0.00 0.00 0.00 70 1014.9
20190424231541 77 190 0.0 0.0 0.00 0.00 0.00 69 1014.5
20190424230028 78 190 0.0 0.0 0.00 0.00 0.00 68 1014.6
20190424224529 78 189 0.0 0.0 0.00 0.00 0.00 67 1014.7
20190424223031 79 182 0.0 0.0 0.00 0.00 0.00 65 1014.7
20190424221548 80 338 0.0 0.0 0.00 0.00 0.00 63 1014.5
20190424220025 80 23 0.0 0.0 0.00 0.00 0.00 61 1014.6
20190424214601 81 349 0.0 0.0 0.00 0.00 0.00 60 1014.8
20190424213029 82 348 0.0 0.0 0.00 0.00 0.00 58 1014.8
20190424211618 82 132 1.0 0.0 0.00 0.00 0.00 58 1014.9
20190424210021 84 134 0.0 0.0 0.00 0.00 0.00 55 1014.7
20190424204521 85 134 1.0 0.0 0.00 0.00 0.00 49 1014.8
20190424203021 84 132 2.0 0.0 0.00 0.00 0.00 44 1014.7